Year,Month,Day,Hour,Minute,Value (Times are PST for temperature in C)
2014,08,23,00,00,14.80
2014,08,23,00,01,14.80
2014,08,23,00,02,14.80
2014,08,23,00,03,14.80
2014,08,23,00,04,14.80
2014,08,23,00,05,14.80
2014,08,23,00,06,14.80
2014,08,23,00,07,14.80
2014,08,23,00,08,14.80
2014,08,23,00,09,14.80
2014,08,23,00,10,14.80
2014,08,23,00,11,14.80
2014,08,23,00,12,14.80
2014,08,23,00,13,14.80
2014,08,23,00,14,14.80
2014,08,23,00,15,14.80
2014,08,23,00,16,14.70
2014,08,23,00,17,14.70
2014,08,23,00,18,14.70
2014,08,23,00,19,14.70
2014,08,23,00,20,14.60
2014,08,23,00,21,14.60
2014,08,23,00,22,14.60
2014,08,23,00,23,14.60
2014,08,23,00,24,14.60
2014,08,23,00,25,14.50
2014,08,23,00,26,14.50
2014,08,23,00,27,14.50
2014,08,23,00,28,14.50
2014,08,23,00,29,14.40
2014,08,23,00,30,14.40
2014,08,23,00,31,14.40
2014,08,23,00,32,14.40
2014,08,23,00,33,14.40
2014,08,23,00,34,14.30
2014,08,23,00,35,14.30
2014,08,23,00,36,14.30
2014,08,23,00,37,14.30
2014,08,23,00,38,14.30
2014,08,23,00,39,14.30
2014,08,23,00,40,14.20
2014,08,23,00,41,14.20
2014,08,23,00,42,14.20
2014,08,23,00,43,14.20
2014,08,23,00,44,14.10
2014,08,23,00,45,14.10
2014,08,23,00,46,14.10
2014,08,23,00,47,14.10
2014,08,23,00,48,14.00
2014,08,23,00,49,14.00
2014,08,23,00,50,14.00
2014,08,23,00,51,13.90
2014,08,23,00,52,13.90
2014,08,23,00,53,13.90
2014,08,23,00,54,13.90
2014,08,23,00,55,13.80
2014,08,23,00,56,13.80
2014,08,23,00,57,13.80
2014,08,23,00,58,13.80
2014,08,23,00,59,13.80
2014,08,23,01,00,13.80
2014,08,23,01,01,13.80
2014,08,23,01,02,13.80
2014,08,23,01,03,13.80
2014,08,23,01,04,13.80
2014,08,23,01,05,13.80
2014,08,23,01,06,13.80
2014,08,23,01,07,13.80
2014,08,23,01,08,13.80
2014,08,23,01,09,13.80
2014,08,23,01,10,13.80
2014,08,23,01,11,13.80
2014,08,23,01,12,13.80
2014,08,23,01,13,13.80
2014,08,23,01,14,13.70
2014,08,23,01,15,13.70
2014,08,23,01,16,13.70
2014,08,23,01,17,13.70
2014,08,23,01,18,13.70
2014,08,23,01,19,13.70
2014,08,23,01,20,13.70
2014,08,23,01,21,13.70
2014,08,23,01,22,13.60
2014,08,23,01,23,13.60
2014,08,23,01,24,13.60
2014,08,23,01,25,13.60
2014,08,23,01,26,13.60
2014,08,23,01,27,13.60
2014,08,23,01,28,13.60
2014,08,23,01,29,13.60
2014,08,23,01,30,13.60
2014,08,23,01,31,13.60
2014,08,23,01,32,13.60
2014,08,23,01,33,13.70
2014,08,23,01,34,13.70
2014,08,23,01,35,13.80
2014,08,23,01,36,13.80
2014,08,23,01,37,13.90
2014,08,23,01,38,13.90
2014,08,23,01,39,13.90
2014,08,23,01,40,13.90
2014,08,23,01,41,13.90
2014,08,23,01,42,14.00
2014,08,23,01,43,14.00
2014,08,23,01,44,14.00
2014,08,23,01,45,14.00
2014,08,23,01,46,14.00
2014,08,23,01,47,14.00
2014,08,23,01,48,13.90
2014,08,23,01,49,13.90
2014,08,23,01,50,13.90
2014,08,23,01,51,13.90
2014,08,23,01,52,13.90
2014,08,23,01,53,13.90
2014,08,23,01,54,13.90
2014,08,23,01,55,13.90
2014,08,23,01,56,13.80
2014,08,23,01,57,13.80
2014,08,23,01,58,13.80
2014,08,23,01,59,13.80
2014,08,23,02,00,13.80
2014,08,23,02,01,13.80
2014,08,23,02,02,13.70
2014,08,23,02,03,13.70
2014,08,23,02,04,13.60
2014,08,23,02,05,13.60
2014,08,23,02,06,13.50
2014,08,23,02,07,13.40
2014,08,23,02,08,13.40
2014,08,23,02,09,13.30
2014,08,23,02,10,13.30
2014,08,23,02,11,13.20
2014,08,23,02,12,13.20
2014,08,23,02,13,13.10
2014,08,23,02,14,13.10
2014,08,23,02,15,13.10
2014,08,23,02,16,13.00
2014,08,23,02,17,13.00
2014,08,23,02,18,13.00
2014,08,23,02,19,13.00
2014,08,23,02,20,13.00
2014,08,23,02,21,12.90
2014,08,23,02,22,12.90
2014,08,23,02,23,12.90
2014,08,23,02,24,12.90
2014,08,23,02,25,12.90
2014,08,23,02,26,12.90
2014,08,23,02,27,12.90
2014,08,23,02,28,12.90
2014,08,23,02,29,12.90
2014,08,23,02,30,12.90
2014,08,23,02,31,12.90
2014,08,23,02,32,12.90
2014,08,23,02,33,12.90
2014,08,23,02,34,12.90
2014,08,23,02,35,12.90
2014,08,23,02,36,12.90
2014,08,23,02,37,13.00
2014,08,23,02,38,13.00
2014,08,23,02,39,13.00
2014,08,23,02,40,13.10
2014,08,23,02,41,13.10
2014,08,23,02,42,13.10
2014,08,23,02,43,13.10
2014,08,23,02,44,13.10
2014,08,23,02,45,13.10
2014,08,23,02,46,13.10
2014,08,23,02,47,13.20
2014,08,23,02,48,13.20
2014,08,23,02,49,13.20
2014,08,23,02,50,13.20
2014,08,23,02,51,13.20
2014,08,23,02,52,13.20
2014,08,23,02,53,13.20
2014,08,23,02,54,13.20
2014,08,23,02,55,13.20
2014,08,23,02,56,13.20
2014,08,23,02,57,13.20
2014,08,23,02,58,13.20
2014,08,23,02,59,13.10
2014,08,23,03,00,13.00
2014,08,23,03,01,13.00
2014,08,23,03,02,12.90
2014,08,23,03,03,12.80
2014,08,23,03,04,12.80
2014,08,23,03,05,12.70
2014,08,23,03,06,12.70
2014,08,23,03,07,12.70
2014,08,23,03,08,12.70
2014,08,23,03,09,12.70
2014,08,23,03,10,12.70
2014,08,23,03,11,12.70
2014,08,23,03,12,12.70
2014,08,23,03,13,12.70
2014,08,23,03,14,12.70
2014,08,23,03,15,12.70
2014,08,23,03,16,12.70
2014,08,23,03,17,12.70
2014,08,23,03,18,12.70
2014,08,23,03,19,12.70
2014,08,23,03,20,12.70
2014,08,23,03,21,12.70
2014,08,23,03,22,12.70
2014,08,23,03,23,12.70
2014,08,23,03,24,12.70
2014,08,23,03,25,12.60
2014,08,23,03,26,12.70
2014,08,23,03,27,12.70
2014,08,23,03,28,12.70
2014,08,23,03,29,12.70
2014,08,23,03,30,12.70
2014,08,23,03,31,12.70
2014,08,23,03,32,12.70
2014,08,23,03,33,12.70
2014,08,23,03,34,12.70
2014,08,23,03,35,12.70
2014,08,23,03,36,12.60
2014,08,23,03,37,12.60
2014,08,23,03,38,12.60
2014,08,23,03,39,12.50
2014,08,23,03,40,12.50
2014,08,23,03,41,12.40
2014,08,23,03,42,12.40
2014,08,23,03,43,12.40
2014,08,23,03,44,12.40
2014,08,23,03,45,12.40
2014,08,23,03,46,12.30
2014,08,23,03,47,12.30
2014,08,23,03,48,12.30
2014,08,23,03,49,12.30
2014,08,23,03,50,12.30
2014,08,23,03,51,12.30
2014,08,23,03,52,12.30
2014,08,23,03,53,12.30
2014,08,23,03,54,12.30
2014,08,23,03,55,12.20
2014,08,23,03,56,12.20
2014,08,23,03,57,12.20
2014,08,23,03,58,12.20
2014,08,23,03,59,12.20
2014,08,23,04,00,12.20
2014,08,23,04,01,12.20
2014,08,23,04,02,12.20
2014,08,23,04,03,12.20
2014,08,23,04,04,12.20
2014,08,23,04,05,12.20
2014,08,23,04,06,12.10
2014,08,23,04,07,12.10
2014,08,23,04,08,12.10
2014,08,23,04,09,12.10
2014,08,23,04,10,12.10
2014,08,23,04,11,12.10
2014,08,23,04,12,12.10
2014,08,23,04,13,12.20
2014,08,23,04,14,12.20
2014,08,23,04,15,12.20
2014,08,23,04,16,12.10
2014,08,23,04,17,12.10
2014,08,23,04,18,12.10
2014,08,23,04,19,12.10
2014,08,23,04,20,12.10
2014,08,23,04,21,12.20
2014,08,23,04,22,12.20
2014,08,23,04,23,12.20
2014,08,23,04,24,12.20
2014,08,23,04,25,12.20
2014,08,23,04,26,12.20
2014,08,23,04,27,12.20
2014,08,23,04,28,12.20
2014,08,23,04,29,12.20
2014,08,23,04,30,12.30
2014,08,23,04,31,12.30
2014,08,23,04,32,12.40
2014,08,23,04,33,12.40
2014,08,23,04,34,12.50
2014,08,23,04,35,12.50
2014,08,23,04,36,12.60
2014,08,23,04,37,12.70
2014,08,23,04,38,12.80
2014,08,23,04,39,12.90
2014,08,23,04,40,13.00
2014,08,23,04,41,13.00
2014,08,23,04,42,13.00
2014,08,23,04,43,13.00
2014,08,23,04,44,13.00
2014,08,23,04,45,12.90
2014,08,23,04,46,13.00
2014,08,23,04,47,13.00
2014,08,23,04,48,13.10
2014,08,23,04,49,13.10
2014,08,23,04,50,13.20
2014,08,23,04,51,13.30
2014,08,23,04,52,13.30
2014,08,23,04,53,13.40
2014,08,23,04,54,13.40
2014,08,23,04,55,13.40
2014,08,23,04,56,13.50
2014,08,23,04,57,13.60
2014,08,23,04,58,13.70
2014,08,23,04,59,13.70
2014,08,23,05,00,13.80
2014,08,23,05,01,13.80
2014,08,23,05,02,13.80
2014,08,23,05,03,13.80
2014,08,23,05,04,13.80
2014,08,23,05,05,13.80
2014,08,23,05,06,13.70
2014,08,23,05,07,13.70
2014,08,23,05,08,13.60
2014,08,23,05,09,13.50
2014,08,23,05,10,13.40
2014,08,23,05,11,13.30
2014,08,23,05,12,13.20
2014,08,23,05,13,13.20
2014,08,23,05,14,13.30
2014,08,23,05,15,13.30
2014,08,23,05,16,13.30
2014,08,23,05,17,13.40
2014,08,23,05,18,13.50
2014,08,23,05,19,13.50
2014,08,23,05,20,13.60
2014,08,23,05,21,13.60
2014,08,23,05,22,13.70
2014,08,23,05,23,13.70
2014,08,23,05,24,13.70
2014,08,23,05,25,13.80
2014,08,23,05,26,13.80
2014,08,23,05,27,13.80
2014,08,23,05,28,13.80
2014,08,23,05,29,13.70
2014,08,23,05,30,13.70
2014,08,23,05,31,13.70
2014,08,23,05,32,13.60
2014,08,23,05,33,13.50
2014,08,23,05,34,13.50
2014,08,23,05,35,13.40
2014,08,23,05,36,13.40
2014,08,23,05,37,13.30
2014,08,23,05,38,13.20
2014,08,23,05,39,13.20
2014,08,23,05,40,13.10
2014,08,23,05,41,13.10
2014,08,23,05,42,13.00
2014,08,23,05,43,13.00
2014,08,23,05,44,12.90
2014,08,23,05,45,12.90
2014,08,23,05,46,12.80
2014,08,23,05,47,12.80
2014,08,23,05,48,12.70
2014,08,23,05,49,12.70
2014,08,23,05,50,12.60
2014,08,23,05,51,12.60
2014,08,23,05,52,12.50
2014,08,23,05,53,12.50
2014,08,23,05,54,12.40
2014,08,23,05,55,12.40
2014,08,23,05,56,12.40
2014,08,23,05,57,12.30
2014,08,23,05,58,12.30
2014,08,23,05,59,12.30
2014,08,23,06,00,12.30
2014,08,23,06,01,12.30
2014,08,23,06,02,12.30
2014,08,23,06,03,12.30
2014,08,23,06,04,12.30
2014,08,23,06,05,12.30
2014,08,23,06,06,12.30
2014,08,23,06,07,12.30
2014,08,23,06,08,12.30
2014,08,23,06,09,12.30
2014,08,23,06,10,12.30
2014,08,23,06,11,12.30
2014,08,23,06,12,12.30
2014,08,23,06,13,12.30
2014,08,23,06,14,12.30
2014,08,23,06,15,12.30
2014,08,23,06,16,12.30
2014,08,23,06,17,12.30
2014,08,23,06,18,12.30
2014,08,23,06,19,12.20
2014,08,23,06,20,12.20
2014,08,23,06,21,12.20
2014,08,23,06,22,12.20
2014,08,23,06,23,12.20
2014,08,23,06,24,12.20
2014,08,23,06,25,12.20
2014,08,23,06,26,12.30
2014,08,23,06,27,12.20
2014,08,23,06,28,12.30
2014,08,23,06,29,12.30
2014,08,23,06,30,12.30
2014,08,23,06,31,12.30
2014,08,23,06,32,12.30
2014,08,23,06,33,12.30
2014,08,23,06,34,12.30
2014,08,23,06,35,12.30
2014,08,23,06,36,12.30
2014,08,23,06,37,12.30
2014,08,23,06,38,12.20
2014,08,23,06,39,12.20
2014,08,23,06,40,12.20
2014,08,23,06,41,12.20
2014,08,23,06,42,12.10
2014,08,23,06,43,12.10
2014,08,23,06,44,12.20
2014,08,23,06,45,12.20
2014,08,23,06,46,12.20
2014,08,23,06,47,12.20
2014,08,23,06,48,12.30
2014,08,23,06,49,12.30
2014,08,23,06,50,12.30
2014,08,23,06,51,12.30
2014,08,23,06,52,12.30
2014,08,23,06,53,12.30
2014,08,23,06,54,12.30
2014,08,23,06,55,12.30
2014,08,23,06,56,12.30
2014,08,23,06,57,12.30
2014,08,23,06,58,12.30
2014,08,23,06,59,12.30
2014,08,23,07,00,12.30
2014,08,23,07,01,12.30
2014,08,23,07,02,12.30
2014,08,23,07,03,12.40
2014,08,23,07,04,12.40
2014,08,23,07,05,12.40
2014,08,23,07,06,12.50
2014,08,23,07,07,12.50
2014,08,23,07,08,12.60
2014,08,23,07,09,12.60
2014,08,23,07,10,12.70
2014,08,23,07,11,12.70
2014,08,23,07,12,12.80
2014,08,23,07,13,12.80
2014,08,23,07,14,12.90
2014,08,23,07,15,13.00
2014,08,23,07,16,13.00
2014,08,23,07,17,13.00
2014,08,23,07,18,13.10
2014,08,23,07,19,13.10
2014,08,23,07,20,13.20
2014,08,23,07,21,13.30
2014,08,23,07,22,13.30
2014,08,23,07,23,13.40
2014,08,23,07,24,13.50
2014,08,23,07,25,13.60
2014,08,23,07,26,13.60
2014,08,23,07,27,13.70
2014,08,23,07,28,13.80
2014,08,23,07,29,13.90
2014,08,23,07,30,14.00
2014,08,23,07,31,14.10
2014,08,23,07,32,14.20
2014,08,23,07,33,14.20
2014,08,23,07,34,14.30
2014,08,23,07,35,14.30
2014,08,23,07,36,14.40
2014,08,23,07,37,14.40
2014,08,23,07,38,14.40
2014,08,23,07,39,14.50
2014,08,23,07,40,14.50
2014,08,23,07,41,14.50
2014,08,23,07,42,14.60
2014,08,23,07,43,14.60
2014,08,23,07,44,14.60
2014,08,23,07,45,14.70
2014,08,23,07,46,14.70
2014,08,23,07,47,14.70
2014,08,23,07,48,14.80
2014,08,23,07,49,14.80
2014,08,23,07,50,14.90
2014,08,23,07,51,14.90
2014,08,23,07,52,14.90
2014,08,23,07,53,14.90
2014,08,23,07,54,15.00
2014,08,23,07,55,15.00
2014,08,23,07,56,15.00
2014,08,23,07,57,15.10
2014,08,23,07,58,15.10
2014,08,23,07,59,15.10
2014,08,23,08,00,15.10
2014,08,23,08,01,15.10
2014,08,23,08,02,15.20
2014,08,23,08,03,15.20
2014,08,23,08,04,15.20
2014,08,23,08,05,15.20
2014,08,23,08,06,15.20
2014,08,23,08,07,15.30
2014,08,23,08,08,15.30
2014,08,23,08,09,15.30
2014,08,23,08,10,15.30
2014,08,23,08,11,15.30
2014,08,23,08,12,15.40
2014,08,23,08,13,15.40
2014,08,23,08,14,15.40
2014,08,23,08,15,15.40
2014,08,23,08,16,15.40
2014,08,23,08,17,15.40
2014,08,23,08,18,15.40
2014,08,23,08,19,15.40
2014,08,23,08,20,15.50
2014,08,23,08,21,15.50
2014,08,23,08,22,15.50
2014,08,23,08,23,15.60
2014,08,23,08,24,15.60
2014,08,23,08,25,15.60
2014,08,23,08,26,15.60
2014,08,23,08,27,15.70
2014,08,23,08,28,15.70
2014,08,23,08,29,15.70
2014,08,23,08,30,15.70
2014,08,23,08,31,15.70
2014,08,23,08,32,15.80
2014,08,23,08,33,15.80
2014,08,23,08,34,15.80
2014,08,23,08,35,15.80
2014,08,23,08,36,15.90
2014,08,23,08,37,15.90
2014,08,23,08,38,15.90
2014,08,23,08,39,16.00
2014,08,23,08,40,16.10
2014,08,23,08,41,16.10
2014,08,23,08,42,16.10
2014,08,23,08,43,16.20
2014,08,23,08,44,16.20
2014,08,23,08,45,16.30
2014,08,23,08,46,16.30
2014,08,23,08,47,16.30
2014,08,23,08,48,16.30
2014,08,23,08,49,16.40
2014,08,23,08,50,16.40
2014,08,23,08,51,16.50
2014,08,23,08,52,16.50
2014,08,23,08,53,16.50
2014,08,23,08,54,16.60
2014,08,23,08,55,16.60
2014,08,23,08,56,16.60
2014,08,23,08,57,16.70
2014,08,23,08,58,16.70
2014,08,23,08,59,16.70
2014,08,23,09,00,16.80
2014,08,23,09,01,16.90
2014,08,23,09,02,17.00
2014,08,23,09,03,17.10
2014,08,23,09,04,17.20
2014,08,23,09,05,17.20
2014,08,23,09,06,17.30
2014,08,23,09,07,17.30
2014,08,23,09,08,17.40
2014,08,23,09,09,17.50
2014,08,23,09,10,17.50
2014,08,23,09,11,17.60
2014,08,23,09,12,17.60
2014,08,23,09,13,17.60
2014,08,23,09,14,17.70
2014,08,23,09,15,17.70
2014,08,23,09,16,17.80
2014,08,23,09,17,17.90
2014,08,23,09,18,18.00
2014,08,23,09,19,18.00
2014,08,23,09,20,18.10
2014,08,23,09,21,18.10
2014,08,23,09,22,18.20
2014,08,23,09,23,18.20
2014,08,23,09,24,18.30
2014,08,23,09,25,18.40
2014,08,23,09,26,18.50
2014,08,23,09,27,18.70
2014,08,23,09,28,18.90
2014,08,23,09,29,19.00
2014,08,23,09,30,19.20
2014,08,23,09,31,19.40
2014,08,23,09,32,19.50
2014,08,23,09,33,19.70
2014,08,23,09,34,19.80
2014,08,23,09,35,20.00
2014,08,23,09,36,20.10
2014,08,23,09,37,20.10
2014,08,23,09,38,20.10
2014,08,23,09,39,20.10
2014,08,23,09,40,20.10
2014,08,23,09,41,20.10
2014,08,23,09,42,20.10
2014,08,23,09,43,20.10
2014,08,23,09,44,20.00
2014,08,23,09,45,19.90
2014,08,23,09,46,19.90
2014,08,23,09,47,19.90
2014,08,23,09,48,19.90
2014,08,23,09,49,19.90
2014,08,23,09,50,20.00
2014,08,23,09,51,20.10
2014,08,23,09,52,20.20
2014,08,23,09,53,20.20
2014,08,23,09,54,20.30
2014,08,23,09,55,20.30
2014,08,23,09,56,20.30
2014,08,23,09,57,20.20
2014,08,23,09,58,20.30
2014,08,23,09,59,20.30
2014,08,23,10,00,20.30
2014,08,23,10,01,20.30
2014,08,23,10,02,20.30
2014,08,23,10,03,20.40
2014,08,23,10,04,20.40
2014,08,23,10,05,20.40
2014,08,23,10,06,20.30
2014,08,23,10,07,20.20
2014,08,23,10,08,20.20
2014,08,23,10,09,20.10
2014,08,23,10,10,20.00
2014,08,23,10,11,20.00
2014,08,23,10,12,19.90
2014,08,23,10,13,19.90
2014,08,23,10,14,19.80
2014,08,23,10,15,19.80
2014,08,23,10,16,19.80
2014,08,23,10,17,19.90
2014,08,23,10,18,19.90
2014,08,23,10,19,19.90
2014,08,23,10,20,20.00
2014,08,23,10,21,20.00
2014,08,23,10,22,20.20
2014,08,23,10,23,20.30
2014,08,23,10,24,20.40
2014,08,23,10,25,20.40
2014,08,23,10,26,20.50
2014,08,23,10,27,20.40
2014,08,23,10,28,20.40
2014,08,23,10,29,20.30
2014,08,23,10,30,20.20
2014,08,23,10,31,20.20
2014,08,23,10,32,20.30
2014,08,23,10,33,20.30
2014,08,23,10,34,20.40
2014,08,23,10,35,20.40
2014,08,23,10,36,20.50
2014,08,23,10,37,20.50
2014,08,23,10,38,20.60
2014,08,23,10,39,20.60
2014,08,23,10,40,20.60
2014,08,23,10,41,20.60
2014,08,23,10,42,20.60
2014,08,23,10,43,20.70
2014,08,23,10,44,20.70
2014,08,23,10,45,20.80
2014,08,23,10,46,21.00
2014,08,23,10,47,21.10
2014,08,23,10,48,21.20
2014,08,23,10,49,21.30
2014,08,23,10,50,21.50
2014,08,23,10,51,21.60
2014,08,23,10,52,21.70
2014,08,23,10,53,21.70
2014,08,23,10,54,21.70
2014,08,23,10,55,21.70
2014,08,23,10,56,21.70
2014,08,23,10,57,21.90
2014,08,23,10,58,22.00
2014,08,23,10,59,22.00
2014,08,23,11,00,21.90
2014,08,23,11,01,21.90
2014,08,23,11,02,21.90
2014,08,23,11,03,21.90
2014,08,23,11,04,21.80
2014,08,23,11,05,21.80
2014,08,23,11,06,21.70
2014,08,23,11,07,21.70
2014,08,23,11,08,21.80
2014,08,23,11,09,21.80
2014,08,23,11,10,21.80
2014,08,23,11,11,21.80
2014,08,23,11,12,21.80
2014,08,23,11,13,21.80
2014,08,23,11,14,21.90
2014,08,23,11,15,21.90
2014,08,23,11,16,22.00
2014,08,23,11,17,22.10
2014,08,23,11,18,22.10
2014,08,23,11,19,22.20
2014,08,23,11,20,22.20
2014,08,23,11,21,22.20
2014,08,23,11,22,22.20
2014,08,23,11,23,22.10
2014,08,23,11,24,22.10
2014,08,23,11,25,22.10
2014,08,23,11,26,22.10
2014,08,23,11,27,22.20
2014,08,23,11,28,22.20
2014,08,23,11,29,22.20
2014,08,23,11,30,22.20
2014,08,23,11,31,22.20
2014,08,23,11,32,22.10
2014,08,23,11,33,22.00
2014,08,23,11,34,22.00
2014,08,23,11,35,21.80
2014,08,23,11,36,21.70
2014,08,23,11,37,21.60
2014,08,23,11,38,21.70
2014,08,23,11,39,21.60
2014,08,23,11,40,21.60
2014,08,23,11,41,21.60
2014,08,23,11,42,21.70
2014,08,23,11,43,21.90
2014,08,23,11,44,22.00
2014,08,23,11,45,22.10
2014,08,23,11,46,22.00
2014,08,23,11,47,21.90
2014,08,23,11,48,21.90
2014,08,23,11,49,22.00
2014,08,23,11,50,22.00
2014,08,23,11,51,22.00
2014,08,23,11,52,21.90
2014,08,23,11,53,21.80
2014,08,23,11,54,21.90
2014,08,23,11,55,21.90
2014,08,23,11,56,21.90
2014,08,23,11,57,21.80
2014,08,23,11,58,21.90
2014,08,23,11,59,21.90
2014,08,23,12,00,22.00
2014,08,23,12,01,22.20
2014,08,23,12,02,22.40
2014,08,23,12,03,22.50
2014,08,23,12,04,22.60
2014,08,23,12,05,22.70
2014,08,23,12,06,22.80
2014,08,23,12,07,22.90
2014,08,23,12,08,22.90
2014,08,23,12,09,22.80
2014,08,23,12,10,22.80
2014,08,23,12,11,22.70
2014,08,23,12,12,22.80
2014,08,23,12,13,22.80
2014,08,23,12,14,23.00
2014,08,23,12,15,23.20
2014,08,23,12,16,23.30
2014,08,23,12,17,23.40
2014,08,23,12,18,23.40
2014,08,23,12,19,23.40
2014,08,23,12,20,23.30
2014,08,23,12,21,23.30
2014,08,23,12,22,23.30
2014,08,23,12,23,23.20
2014,08,23,12,24,23.10
2014,08,23,12,25,23.00
2014,08,23,12,26,23.00
2014,08,23,12,27,23.00
2014,08,23,12,28,23.10
2014,08,23,12,29,23.20
2014,08,23,12,30,23.20
2014,08,23,12,31,23.20
2014,08,23,12,32,23.30
2014,08,23,12,33,23.40
2014,08,23,12,34,23.40
2014,08,23,12,35,23.50
2014,08,23,12,36,23.60
2014,08,23,12,37,23.70
2014,08,23,12,38,23.70
2014,08,23,12,39,23.70
2014,08,23,12,40,23.70
2014,08,23,12,41,23.70
2014,08,23,12,42,23.70
2014,08,23,12,43,23.60
2014,08,23,12,44,23.60
2014,08,23,12,45,23.60
2014,08,23,12,46,23.50
2014,08,23,12,47,23.60
2014,08,23,12,48,23.80
2014,08,23,12,49,24.00
2014,08,23,12,50,24.00
2014,08,23,12,51,23.90
2014,08,23,12,52,23.90
2014,08,23,12,53,23.90
2014,08,23,12,54,23.90
2014,08,23,12,55,23.90
2014,08,23,12,56,23.90
2014,08,23,12,57,23.80
2014,08,23,12,58,23.80
2014,08,23,12,59,23.80
2014,08,23,13,00,23.70
2014,08,23,13,01,23.60
2014,08,23,13,02,23.60
2014,08,23,13,03,23.60
2014,08,23,13,04,23.40
2014,08,23,13,05,23.20
2014,08,23,13,06,23.10
2014,08,23,13,07,23.10
2014,08,23,13,08,23.00
2014,08,23,13,09,22.90
2014,08,23,13,10,23.00
2014,08,23,13,11,23.00
2014,08,23,13,12,23.00
2014,08,23,13,13,22.90
2014,08,23,13,14,22.90
2014,08,23,13,15,22.90
2014,08,23,13,16,23.00
2014,08,23,13,17,23.00
2014,08,23,13,18,23.10
2014,08,23,13,19,23.20
2014,08,23,13,20,23.20
2014,08,23,13,21,23.20
2014,08,23,13,22,23.20
2014,08,23,13,23,23.20
2014,08,23,13,24,23.20
2014,08,23,13,25,23.30
2014,08,23,13,26,23.30
2014,08,23,13,27,23.40
2014,08,23,13,28,23.40
2014,08,23,13,29,23.30
2014,08,23,13,30,23.40
2014,08,23,13,31,23.40
2014,08,23,13,32,23.40
2014,08,23,13,33,23.50
2014,08,23,13,34,23.60
2014,08,23,13,35,23.60
2014,08,23,13,36,23.70
2014,08,23,13,37,23.80
2014,08,23,13,38,24.00
2014,08,23,13,39,24.20
2014,08,23,13,40,24.30
2014,08,23,13,41,24.40
2014,08,23,13,42,24.50
2014,08,23,13,43,24.50
2014,08,23,13,44,24.60
2014,08,23,13,45,24.60
2014,08,23,13,46,24.80
2014,08,23,13,47,24.90
2014,08,23,13,48,24.90
2014,08,23,13,49,25.10
2014,08,23,13,50,25.10
2014,08,23,13,51,25.00
2014,08,23,13,52,24.80
2014,08,23,13,53,24.80
2014,08,23,13,54,24.80
2014,08,23,13,55,24.70
2014,08,23,13,56,24.60
2014,08,23,13,57,24.60
2014,08,23,13,58,24.60
2014,08,23,13,59,24.70
2014,08,23,14,00,24.80
2014,08,23,14,01,24.90
2014,08,23,14,02,24.80
2014,08,23,14,03,24.70
2014,08,23,14,04,24.70
2014,08,23,14,05,24.70
2014,08,23,14,06,24.80
2014,08,23,14,07,24.80
2014,08,23,14,08,24.80
2014,08,23,14,09,24.80
2014,08,23,14,10,24.70
2014,08,23,14,11,24.70
2014,08,23,14,12,24.70
2014,08,23,14,13,24.70
2014,08,23,14,14,24.70
2014,08,23,14,15,24.70
2014,08,23,14,16,24.70
2014,08,23,14,17,24.70
2014,08,23,14,18,24.60
2014,08,23,14,19,24.60
2014,08,23,14,20,24.60
2014,08,23,14,21,24.60
2014,08,23,14,22,24.60
2014,08,23,14,23,24.60
2014,08,23,14,24,24.50
2014,08,23,14,25,24.50
2014,08,23,14,26,24.60
2014,08,23,14,27,24.60
2014,08,23,14,28,24.70
2014,08,23,14,29,24.80
2014,08,23,14,30,24.90
2014,08,23,14,31,25.00
2014,08,23,14,32,25.00
2014,08,23,14,33,25.10
2014,08,23,14,34,25.10
2014,08,23,14,35,25.10
2014,08,23,14,36,25.00
2014,08,23,14,37,24.90
2014,08,23,14,38,24.70
2014,08,23,14,39,24.70
2014,08,23,14,40,24.70
2014,08,23,14,41,24.70
2014,08,23,14,42,24.70
2014,08,23,14,43,24.70
2014,08,23,14,44,24.80
2014,08,23,14,45,24.70
2014,08,23,14,46,24.70
2014,08,23,14,47,24.70
2014,08,23,14,48,24.70
2014,08,23,14,49,24.70
2014,08,23,14,50,24.80
2014,08,23,14,51,25.00
2014,08,23,14,52,25.10
2014,08,23,14,53,25.20
2014,08,23,14,54,25.20
2014,08,23,14,55,25.30
2014,08,23,14,56,25.30
2014,08,23,14,57,25.40
2014,08,23,14,58,25.40
2014,08,23,14,59,25.30
2014,08,23,15,00,25.30
2014,08,23,15,01,25.30
2014,08,23,15,02,25.30
2014,08,23,15,03,25.30
2014,08,23,15,04,25.20
2014,08,23,15,05,25.20
2014,08,23,15,06,25.20
2014,08,23,15,07,25.20
2014,08,23,15,08,25.30
2014,08,23,15,09,25.40
2014,08,23,15,10,25.40
2014,08,23,15,11,25.50
2014,08,23,15,12,25.70
2014,08,23,15,13,25.70
2014,08,23,15,14,25.70
2014,08,23,15,15,25.70
2014,08,23,15,16,25.70
2014,08,23,15,17,25.60
2014,08,23,15,18,25.50
2014,08,23,15,19,25.40
2014,08,23,15,20,25.40
2014,08,23,15,21,25.40
2014,08,23,15,22,25.30
2014,08,23,15,23,25.20
2014,08,23,15,24,25.20
2014,08,23,15,25,25.20
2014,08,23,15,26,25.10
2014,08,23,15,27,25.10
2014,08,23,15,28,25.10
2014,08,23,15,29,25.10
2014,08,23,15,30,25.10
2014,08,23,15,31,25.20
2014,08,23,15,32,25.10
2014,08,23,15,33,25.10
2014,08,23,15,34,25.20
2014,08,23,15,35,25.30
2014,08,23,15,36,25.40
2014,08,23,15,37,25.60
2014,08,23,15,38,25.60
2014,08,23,15,39,25.70
2014,08,23,15,40,25.60
2014,08,23,15,41,25.60
2014,08,23,15,42,25.50
2014,08,23,15,43,25.40
2014,08,23,15,44,25.50
2014,08,23,15,45,25.50
2014,08,23,15,46,25.50
2014,08,23,15,47,25.60
2014,08,23,15,48,25.60
2014,08,23,15,49,25.60
2014,08,23,15,50,25.60
2014,08,23,15,51,25.70
2014,08,23,15,52,25.80
2014,08,23,15,53,25.90
2014,08,23,15,54,25.90
2014,08,23,15,55,26.00
2014,08,23,15,56,26.10
2014,08,23,15,57,26.00
2014,08,23,15,58,26.00
2014,08,23,15,59,26.00
2014,08,23,16,00,25.90
2014,08,23,16,01,25.80
2014,08,23,16,02,25.80
2014,08,23,16,03,25.80
2014,08,23,16,04,25.80
2014,08,23,16,05,25.90
2014,08,23,16,06,25.90
2014,08,23,16,07,26.00
2014,08,23,16,08,26.00
2014,08,23,16,09,26.10
2014,08,23,16,10,26.10
2014,08,23,16,11,26.20
2014,08,23,16,12,26.20
2014,08,23,16,13,26.20
2014,08,23,16,14,26.20
2014,08,23,16,15,26.20
2014,08,23,16,16,26.10
2014,08,23,16,17,26.10
2014,08,23,16,18,26.00
2014,08,23,16,19,26.00
2014,08,23,16,20,26.00
2014,08,23,16,21,25.90
2014,08,23,16,22,25.80
2014,08,23,16,23,25.80
2014,08,23,16,24,25.90
2014,08,23,16,25,25.90
2014,08,23,16,26,25.80
2014,08,23,16,27,25.70
2014,08,23,16,28,25.70
2014,08,23,16,29,25.70
2014,08,23,16,30,25.70
2014,08,23,16,31,25.80
2014,08,23,16,32,25.90
2014,08,23,16,33,26.00
2014,08,23,16,34,26.10
2014,08,23,16,35,26.10
2014,08,23,16,36,26.00
2014,08,23,16,37,25.90
2014,08,23,16,38,25.90
2014,08,23,16,39,25.90
2014,08,23,16,40,25.90
2014,08,23,16,41,25.90
2014,08,23,16,42,25.90
2014,08,23,16,43,26.00
2014,08,23,16,44,26.00
2014,08,23,16,45,26.00
2014,08,23,16,46,26.10
2014,08,23,16,47,26.00
2014,08,23,16,48,25.90
2014,08,23,16,49,25.90
2014,08,23,16,50,25.80
2014,08,23,16,51,25.80
2014,08,23,16,52,25.70
2014,08,23,16,53,25.70
2014,08,23,16,54,25.70
2014,08,23,16,55,25.70
2014,08,23,16,56,25.70
2014,08,23,16,57,25.60
2014,08,23,16,58,25.60
2014,08,23,16,59,25.50
2014,08,23,17,00,25.50
2014,08,23,17,01,25.50
2014,08,23,17,02,25.50
2014,08,23,17,03,25.50
2014,08,23,17,04,25.50
2014,08,23,17,05,25.60
2014,08,23,17,06,25.70
2014,08,23,17,07,25.70
2014,08,23,17,08,25.70
2014,08,23,17,09,25.80
2014,08,23,17,10,25.80
2014,08,23,17,11,25.80
2014,08,23,17,12,25.80
2014,08,23,17,13,25.80
2014,08,23,17,14,25.80
2014,08,23,17,15,25.80
2014,08,23,17,16,25.70
2014,08,23,17,17,25.70
2014,08,23,17,18,25.60
2014,08,23,17,19,25.60